Location: Alvis C Story Elementary School
(33.0968°N, 96.6364°W)
Time: 06:43:44
(UTC+00:00)

Cosmos 1602 - Pass Details

Date: 11 July 2022
Orbit: 509 x 526 km, 82.5° (Epoch: 14 August)

Event Time Altitude Azimuth Distance (km) Brightness Sun altitude
Exits shadow 08:21:33 23° 353° (N) 1,112 5.8 -29.0°
Drops below altitude 10° 08:23:08 10° 359° (N) 1,735 7.1 -28.8°
Sets 08:25:17 0° 3° (N) 2,627 8.2 -28.6°
